Location: Albuquerque Trailhead
(34.7934°N, 106.3736°W)
Time: 13:27:39
(UTC+00:00)

Cosmos 1992 Rocket - Pass Details

Date: 20 June 2021
Orbit: 758 x 766 km, 74.0° (Epoch: 30 July)

Event Time Altitude Azimuth Distance (km) Brightness Sun altitude
Exits shadow 04:57:03 52° 90° (E) 939 4.2 -24.1°
Drops below altitude 10° 05:01:49 10° 27° (NNE) 2,301 6.8 -24.6°
Sets 05:04:14 0° 23° (NNE) 3,232 7.7 -24.9°
